Terminal Aerodrome Forecast
Issued by NWS

Home | Current Version | Previous Version | Text Only | Print | Product List | Glossary On
Versions: 1 2 3 4 5 6 7 8 9 10 11 12 13 14
000
FTUS43 KFGF 110500
TAFTVF
TAF
KTVF 110520Z 1106/1206 18007KT P6SM SCT250
     FM111200 22006KT P6SM SCT250
     FM111500 28008KT P6SM SCT250
     FM111800 30015KT P6SM SCT250
      AMD LTD TO CLD VIS AND WIND=

USA.gov is the U.S. government's official web portal to all federal, state and local government web resources and services.